When you browse on this site, cookies collect data to enhance your experience and personalize the content and advertising you see.
Visit our Privacy Policy to learn more. By continuing to use the site, you agree to this use of cookies and data.
  • In Czech Republic
  • List of Countries
  • For 7 days
  • Water Temperature
  • Satellite Maps
  • Weather Map
  • Weather Widgets
  • user-avatar
    Login

    Hourly Weather Zakuplene

    Today, 20 July, Saturday

    Time Temperature Precipitation Wind Pressure Humidity
    00:00 +14°C° 0 mm 2 mps 747 mmHg 93%
    01:00 +14°C° 0 mm 2 mps 747 mmHg 93%
    02:00 +13°C° 0 mm 2 mps 747 mmHg 92%
    03:00 +13°C° 0 mm 2 mps 747 mmHg 91%
    04:00 +13°C° 0 mm 2 mps 748 mmHg 91%
    05:00 +13°C° 0 mm 2 mps 748 mmHg 90%
    06:00 +15°C° 0 mm 2 mps 748 mmHg 83%
    07:00 +17°C° 0 mm 2 mps 748 mmHg 76%
    08:00 +20°C° 0 mm 2 mps 748 mmHg 69%
    09:00 +21°C° 0 mm 2 mps 748 mmHg 64%
    10:00 +22°C° 0 mm 3 mps 748 mmHg 58%
    11:00 +25°C° 0 mm 3 mps 749 mmHg 53%
    12:00 +25°C° 0 mm 3 mps 749 mmHg 52%
    13:00 +26°C° 0 mm 3 mps 749 mmHg 51%
    14:00 +26°C° 0 mm 3 mps 749 mmHg 50%
    15:00 +26°C° 0 mm 3 mps 749 mmHg 51%
    16:00 +26°C° 0 mm 3 mps 749 mmHg 53%
    17:00 +26°C° 0 mm 2 mps 749 mmHg 55%
    18:00 +24°C° 0.1 mm 2 mps 749 mmHg 63%
    19:00 +21°C° 0.1 mm 2 mps 749 mmHg 72%
    20:00 +19°C° 0.1 mm 2 mps 748 mmHg 80%
    21:00 +19°C° 0 mm 1 mps 749 mmHg 82%
    22:00 +18°C° 0 mm 1 mps 749 mmHg 85%
    23:00 +15°C° 0 mm 0 mps 749 mmHg 87%

    Tomorrow, 21 July, Sunday

    Time Temperature Precipitation Wind Pressure Humidity
    00:00 +15°C° 0 mm 0 mps 749 mmHg 88%
    01:00 +15°C° 0 mm 0 mps 749 mmHg 89%
    02:00 +14°C° 0 mm 0 mps 749 mmHg 90%
    03:00 +14°C° 0 mm 0 mps 749 mmHg 90%
    04:00 +14°C° 0 mm 0 mps 749 mmHg 89%
    05:00 +15°C° 0 mm 0 mps 749 mmHg 89%
    06:00 +17°C° 0 mm 0 mps 749 mmHg 82%
    07:00 +19°C° 0 mm 0 mps 750 mmHg 76%
    08:00 +21°C° 0 mm 0 mps 750 mmHg 69%
    09:00 +23°C° 0 mm 0 mps 750 mmHg 64%
    10:00 +24°C° 0 mm 0 mps 750 mmHg 59%
    11:00 +26°C° 0 mm 0 mps 750 mmHg 54%
    12:00 +27°C° 0.1 mm 1 mps 750 mmHg 54%
    13:00 +27°C° 0.1 mm 1 mps 749 mmHg 54%
    14:00 +27°C° 0.1 mm 1 mps 749 mmHg 54%
    15:00 +27°C° 0.5 mm 1 mps 749 mmHg 59%
    16:00 +26°C° 0.5 mm 1 mps 749 mmHg 63%
    17:00 +26°C° 0.5 mm 1 mps 749 mmHg 68%
    18:00 +24°C° 0.1 mm 1 mps 749 mmHg 72%
    19:00 +23°C° 0.1 mm 1 mps 749 mmHg 77%
    20:00 +21°C° 0.1 mm 1 mps 749 mmHg 82%
    21:00 +20°C° 0.3 mm 1 mps 749 mmHg 84%
    22:00 +19°C° 0.3 mm 1 mps 749 mmHg 86%
    23:00 +19°C° 0.3 mm 1 mps 749 mmHg 89%

    Day after tomorrow, 22 July, Monday

    Time Temperature Precipitation Wind Pressure Humidity
    00:00 +18°C° 0.1 mm 1 mps 749 mmHg 90%
    01:00 +18°C° 0.1 mm 1 mps 748 mmHg 92%
    02:00 +16°C° 0.1 mm 1 mps 748 mmHg 93%
    03:00 +16°C° 0 mm 2 mps 748 mmHg 94%
    04:00 +17°C° 0 mm 2 mps 748 mmHg 94%
    05:00 +17°C° 0 mm 2 mps 748 mmHg 95%
    06:00 +18°C° 0 mm 2 mps 748 mmHg 90%
    07:00 +20°C° 0 mm 2 mps 747 mmHg 86%
    08:00 +21°C° 0 mm 3 mps 747 mmHg 82%
    09:00 +22°C° 1.6 mm 3 mps 747 mmHg 81%
    10:00 +24°C° 1.6 mm 2 mps 747 mmHg 80%
    11:00 +24°C° 1.6 mm 2 mps 747 mmHg 79%
    12:00 +23°C° 0.9 mm 2 mps 747 mmHg 83%
    13:00 +21°C° 0.9 mm 2 mps 747 mmHg 88%
    14:00 +20°C° 0.9 mm 2 mps 747 mmHg 92%
    15:00 +19°C° 0.2 mm 2 mps 747 mmHg 93%
    16:00 +19°C° 0.2 mm 2 mps 747 mmHg 93%
    17:00 +20°C° 0.2 mm 1 mps 746 mmHg 94%
    18:00 +19°C° 0 mm 1 mps 746 mmHg 94%
    19:00 +19°C° 0 mm 1 mps 746 mmHg 95%
    20:00 +17°C° 0 mm 0 mps 746 mmHg 95%
    21:00 +18°C° 0 mm 1 mps 746 mmHg 95%
    22:00 +18°C° 0 mm 1 mps 746 mmHg 96%
    23:00 +16°C° 0 mm 1 mps 746 mmHg 96%

    23 July, Tuesday

    Time Temperature Precipitation Wind Pressure Humidity
    00:00 +16°C° 0 mm 1 mps 746 mmHg 97%
    01:00 +16°C° 0 mm 1 mps 746 mmHg 97%
    02:00 +16°C° 0 mm 2 mps 746 mmHg 97%
    03:00 +16°C° 0 mm 2 mps 746 mmHg 97%
    04:00 +16°C° 0 mm 2 mps 746 mmHg 97%
    05:00 +16°C° 0 mm 2 mps 746 mmHg 97%
    06:00 +18°C° 0 mm 1 mps 746 mmHg 96%
    07:00 +18°C° 0 mm 1 mps 746 mmHg 95%
    08:00 +19°C° 0 mm 1 mps 746 mmHg 93%
    09:00 +20°C° 0.2 mm 1 mps 746 mmHg 89%
    10:00 +21°C° 0.2 mm 1 mps 746 mmHg 84%
    11:00 +22°C° 0.2 mm 1 mps 746 mmHg 79%
    12:00 +23°C° 0.2 mm 1 mps 746 mmHg 77%
    13:00 +23°C° 0.2 mm 1 mps 746 mmHg 74%
    14:00 +24°C° 0.2 mm 1 mps 746 mmHg 72%
    15:00 +24°C° 0.2 mm 1 mps 746 mmHg 72%
    16:00 +24°C° 0.2 mm 1 mps 746 mmHg 72%
    17:00 +24°C° 0.2 mm 1 mps 746 mmHg 72%
    18:00 +23°C° 0.1 mm 2 mps 746 mmHg 78%
    19:00 +20°C° 0.1 mm 2 mps 746 mmHg 85%
    20:00 +19°C° 0.1 mm 2 mps 746 mmHg 92%
    21:00 +18°C° 0.1 mm 2 mps 746 mmHg 94%
    22:00 +18°C° 0.1 mm 2 mps 746 mmHg 95%
    23:00 +17°C° 0.1 mm 2 mps 747 mmHg 97%

    24 July, Wednesday

    Time Temperature Precipitation Wind Pressure Humidity
    00:00 +17°C° 0.1 mm 2 mps 747 mmHg 96%
    01:00 +17°C° 0.1 mm 2 mps 747 mmHg 95%
    02:00 +17°C° 0.1 mm 2 mps 747 mmHg 95%
    03:00 +17°C° 0 mm 2 mps 747 mmHg 95%
    04:00 +17°C° 0 mm 2 mps 747 mmHg 95%
    05:00 +16°C° 0 mm 2 mps 747 mmHg 95%
    06:00 +18°C° 0 mm 2 mps 747 mmHg 90%
    07:00 +19°C° 0 mm 3 mps 747 mmHg 85%
    08:00 +21°C° 0 mm 3 mps 748 mmHg 80%
    09:00 +22°C° 0 mm 3 mps 748 mmHg 73%
    10:00 +25°C° 0 mm 4 mps 748 mmHg 66%
    11:00 +26°C° 0 mm 4 mps 748 mmHg 59%
    12:00 +27°C° 0 mm 4 mps 748 mmHg 57%
    13:00 +27°C° 0 mm 4 mps 748 mmHg 55%
    14:00 +28°C° 0 mm 4 mps 748 mmHg 53%
    15:00 +27°C° 0 mm 4 mps 748 mmHg 56%
    16:00 +27°C° 0 mm 4 mps 748 mmHg 59%
    17:00 +27°C° 0 mm 4 mps 748 mmHg 62%
    18:00 +25°C° 0 mm 3 mps 748 mmHg 70%
    19:00 +23°C° 0 mm 2 mps 748 mmHg 77%
    20:00 +21°C° 0 mm 2 mps 748 mmHg 84%
    21:00 +20°C° 0 mm 2 mps 748 mmHg 86%
    22:00 +19°C° 0 mm 2 mps 748 mmHg 88%
    23:00 +18°C° 0 mm 2 mps 748 mmHg 89%

    25 July, Thursday

    Time Temperature Precipitation Wind Pressure Humidity
    00:00 +18°C° 0 mm 2 mps 748 mmHg 90%
    01:00 +17°C° 0 mm 2 mps 748 mmHg 91%
    02:00 +17°C° 0 mm 2 mps 748 mmHg 92%
    03:00 +17°C° 0 mm 2 mps 749 mmHg 92%
    04:00 +17°C° 0 mm 2 mps 749 mmHg 92%
    05:00 +17°C° 0 mm 2 mps 749 mmHg 92%
    06:00 +18°C° 0 mm 2 mps 749 mmHg 85%
    07:00 +20°C° 0 mm 2 mps 749 mmHg 79%
    08:00 +23°C° 0 mm 2 mps 749 mmHg 73%
    09:00 +25°C° 0 mm 3 mps 749 mmHg 68%
    10:00 +26°C° 0 mm 3 mps 749 mmHg 63%
    11:00 +27°C° 0 mm 3 mps 749 mmHg 58%
    12:00 +28°C° 0 mm 3 mps 749 mmHg 57%
    13:00 +28°C° 0 mm 3 mps 749 mmHg 56%
    14:00 +29°C° 0 mm 3 mps 749 mmHg 55%
    15:00 +28°C° 0.1 mm 3 mps 749 mmHg 58%
    16:00 +28°C° 0.1 mm 3 mps 749 mmHg 62%
    17:00 +28°C° 0.1 mm 3 mps 749 mmHg 65%
    18:00 +26°C° 0.4 mm 2 mps 749 mmHg 73%
    19:00 +24°C° 0.4 mm 2 mps 749 mmHg 81%
    20:00 +23°C° 0.4 mm 2 mps 749 mmHg 89%
    21:00 +21°C° 0.1 mm 2 mps 749 mmHg 91%
    22:00 +20°C° 0.1 mm 2 mps 749 mmHg 93%
    23:00 +20°C° 0.1 mm 2 mps 749 mmHg 95%
    Show more